RYR47GB LERS-EGNM

Flight info

Callsign RYR47GB
Flight time 2h 15m
Altitude 36000
Route NATPI/N0435F380 DCT EVNAM DCT TUPAR UN861 ANG DCT AKIKI UN867 AVANT UM184 HEMEL T420 TNT N57 DENBY DCT LBA
Aircraft B738/M-SDE2E3FGHIRWXY/LB1

Departure

Time 2026-04-22 13:06
Airport Reus Airport (LERS)

Arrival

Time 2026-04-22 15:22
Airport Leeds Bradford Airport (EGNM)
Time Latitude Longitude Altitude Speed Heading
2026-04-22 13:00 41.14674 1.15887 256 ft 0 kts 69°
2026-04-22 13:01 41.14674 1.15888 256 ft 0 kts 69°
2026-04-22 13:03 41.14681 1.15911 256 ft 10 kts 69°
2026-04-22 13:03 41.14731 1.16085 254 ft 29 kts 70°
2026-04-22 13:03 41.14823 1.16415 251 ft 42 kts 70°
2026-04-22 13:03 41.14926 1.16770 249 ft 40 kts 71°
2026-04-22 13:04 41.15029 1.17102 250 ft 37 kts 71°
2026-04-22 13:04 41.15121 1.17416 247 ft 36 kts 67°
2026-04-22 13:04 41.15208 1.17720 245 ft 34 kts 69°
2026-04-22 13:04 41.15283 1.18018 244 ft 32 kts 67°
2026-04-22 13:05 41.15321 1.18237 248 ft 19 kts 138°
2026-04-22 13:05 41.15198 1.18266 246 ft 18 kts 213°
2026-04-22 13:05 41.15122 1.18039 243 ft 54 kts 249°
2026-04-22 13:05 41.14896 1.17272 245 ft 122 kts 250°
2026-04-22 13:06 41.14516 1.15983 337 ft 166 kts 247°
2026-04-22 13:06 41.14107 1.14646 1122 ft 154 kts 245°
2026-04-22 13:06 41.13555 1.13319 1210 ft 182 kts 227°
2026-04-22 13:06 41.12626 1.12086 1464 ft 197 kts 231°
2026-04-22 13:07 41.11885 1.10458 1727 ft 215 kts 243°
2026-04-22 13:07 41.11184 1.08641 2043 ft 231 kts 242°
2026-04-22 13:07 41.10380 1.06724 2430 ft 245 kts 240°
2026-04-22 13:07 41.09501 1.04739 2803 ft 258 kts 240°
2026-04-22 13:08 41.08570 1.02663 3271 ft 266 kts 240°
2026-04-22 13:08 41.07621 1.00545 4052 ft 266 kts 240°
2026-04-22 13:08 41.06681 0.98439 4720 ft 270 kts 240°
2026-04-22 13:08 41.05712 0.96268 4962 ft 277 kts 240°
2026-04-22 13:09 41.04725 0.94051 4990 ft 278 kts 240°
2026-04-22 13:09 41.03767 0.91901 4993 ft 269 kts 241°
2026-04-22 13:09 41.03072 0.89657 4996 ft 262 kts 260°
2026-04-22 13:09 41.03049 0.87238 4996 ft 265 kts 279°
2026-04-22 13:10 41.03540 0.84892 4993 ft 267 kts 291°
2026-04-22 13:10 41.04396 0.82699 4995 ft 267 kts 306°
2026-04-22 13:10 41.05731 0.81020 5010 ft 269 kts 326°
2026-04-22 13:10 41.07421 0.79918 5010 ft 272 kts 339°
2026-04-22 13:11 41.09261 0.79345 5006 ft 273 kts 355°
2026-04-22 13:11 41.11151 0.79619 5010 ft 276 kts 16°
2026-04-22 13:11 41.12943 0.80595 5025 ft 277 kts 25°
2026-04-22 13:11 41.14673 0.81712 5011 ft 276 kts 25°
2026-04-22 13:12 41.16392 0.82835 5018 ft 275 kts 25°
2026-04-22 13:12 41.18102 0.83943 5022 ft 275 kts 25°
2026-04-22 13:12 41.19820 0.85046 5029 ft 276 kts 24°
2026-04-22 13:12 41.21561 0.86162 5030 ft 275 kts 24°
2026-04-22 13:13 41.23281 0.87265 5035 ft 275 kts 24°
2026-04-22 13:13 41.24996 0.88368 5042 ft 275 kts 24°
2026-04-22 13:13 41.26730 0.89483 5039 ft 275 kts 24°
2026-04-22 13:13 41.28448 0.90588 5039 ft 275 kts 24°
2026-04-22 13:14 41.30192 0.91710 5041 ft 276 kts 24°
2026-04-22 13:14 41.31921 0.92821 5043 ft 277 kts 24°
2026-04-22 13:14 41.33498 0.93839 5039 ft 276 kts 24°
2026-04-22 13:14 41.35227 0.94959 5038 ft 276 kts 24°
2026-04-22 13:15 41.36896 0.96230 5041 ft 277 kts 32°
2026-04-22 13:15 41.38499 0.97716 5043 ft 277 kts 34°
2026-04-22 13:15 41.40036 0.99220 5056 ft 281 kts 35°
2026-04-22 13:15 41.41640 1.00783 5743 ft 288 kts 34°
2026-04-22 13:16 41.43223 1.02308 6635 ft 286 kts 33°
2026-04-22 13:16 41.44849 1.03856 7392 ft 289 kts 33°
2026-04-22 13:16 41.46506 1.05432 8129 ft 297 kts 33°
2026-04-22 13:16 41.48080 1.06933 8919 ft 301 kts 33°
2026-04-22 13:17 41.49807 1.08583 9727 ft 306 kts 32°
2026-04-22 13:17 41.51547 1.10248 10417 ft 315 kts 32°
2026-04-22 13:17 41.53372 1.11969 10912 ft 330 kts 30°
2026-04-22 13:17 41.55435 1.13463 11351 ft 341 kts 18°
2026-04-22 13:18 41.57715 1.14421 11826 ft 352 kts 10°
2026-04-22 13:18 41.60102 1.15129 12538 ft 356 kts
2026-04-22 13:18 41.62541 1.15790 13375 ft 358 kts
2026-04-22 13:18 41.64997 1.16482 14136 ft 363 kts
2026-04-22 13:19 41.67451 1.17221 14893 ft 367 kts
2026-04-22 13:19 41.69964 1.18017 15666 ft 372 kts
2026-04-22 13:19 41.72453 1.18825 16405 ft 376 kts
2026-04-22 13:19 41.75010 1.19663 17174 ft 379 kts 10°
2026-04-22 13:20 41.77576 1.20506 17887 ft 383 kts
2026-04-22 13:20 41.80183 1.21362 18650 ft 386 kts
2026-04-22 13:20 41.82803 1.22221 19374 ft 390 kts 10°
2026-04-22 13:20 41.85433 1.23082 20085 ft 393 kts 10°
2026-04-22 13:21 41.88103 1.23955 20804 ft 396 kts 10°
2026-04-22 13:21 41.90787 1.24833 21497 ft 399 kts 10°
2026-04-22 13:21 41.93479 1.25715 22194 ft 401 kts 10°
2026-04-22 13:21 41.96184 1.26604 22807 ft 405 kts 10°
2026-04-22 13:22 41.98918 1.27504 23523 ft 407 kts 10°
2026-04-22 13:22 42.01677 1.28414 24118 ft 410 kts 10°
2026-04-22 13:22 42.04439 1.29323 24730 ft 413 kts 10°
2026-04-22 13:22 42.07260 1.30252 25303 ft 416 kts 10°
2026-04-22 13:23 42.10058 1.31175 25882 ft 418 kts 10°
2026-04-22 13:23 42.12899 1.32112 26458 ft 420 kts 10°
2026-04-22 13:23 42.15740 1.33042 26984 ft 423 kts 10°
2026-04-22 13:23 42.18608 1.33860 27499 ft 425 kts
2026-04-22 13:24 42.21554 1.34328 28012 ft 424 kts 359°
2026-04-22 13:24 42.24526 1.34240 28554 ft 424 kts 353°
2026-04-22 13:24 42.27433 1.33803 29032 ft 426 kts 349°
2026-04-22 13:24 42.30353 1.33195 29490 ft 428 kts 348°
2026-04-22 13:25 42.33322 1.32504 29996 ft 430 kts 348°
2026-04-22 13:25 42.36250 1.31807 30538 ft 431 kts 348°
2026-04-22 13:25 42.39189 1.31113 31335 ft 425 kts 348°
2026-04-22 13:25 42.42047 1.30448 32092 ft 420 kts 348°
2026-04-22 13:26 42.44910 1.29788 32707 ft 417 kts 348°
2026-04-22 13:26 42.47777 1.29133 33231 ft 417 kts 348°
2026-04-22 13:26 42.50601 1.28492 33734 ft 416 kts 348°
2026-04-22 13:26 42.53484 1.27842 34215 ft 415 kts 348°
2026-04-22 13:27 42.56282 1.27214 34738 ft 414 kts 347°
2026-04-22 13:27 42.59129 1.26573 35320 ft 411 kts 348°
2026-04-22 13:27 42.61942 1.25941 35881 ft 408 kts 348°
2026-04-22 13:27 42.64725 1.25314 36069 ft 412 kts 347°
2026-04-22 13:28 42.67577 1.24671 36082 ft 418 kts 348°
2026-04-22 13:28 42.73330 1.23387 36093 ft 418 kts 349°
2026-04-22 13:29 42.79097 1.22475 36089 ft 419 kts 352°
2026-04-22 13:29 42.84880 1.21758 36071 ft 419 kts 352°
2026-04-22 13:30 42.90691 1.21023 36044 ft 419 kts 351°
2026-04-22 13:30 42.96473 1.20260 36024 ft 418 kts 351°
2026-04-22 13:31 43.02262 1.19480 36006 ft 418 kts 351°
2026-04-22 13:31 43.08053 1.18681 36001 ft 420 kts 351°
2026-04-22 13:32 43.13858 1.17876 35995 ft 419 kts 351°
2026-04-22 13:32 43.19644 1.17070 35990 ft 419 kts 351°
2026-04-22 13:33 43.25427 1.16266 35985 ft 418 kts 351°
2026-04-22 13:33 43.31193 1.15462 35983 ft 418 kts 351°
2026-04-22 13:34 43.36962 1.14659 35981 ft 419 kts 351°
2026-04-22 13:34 43.42747 1.13849 35979 ft 418 kts 351°
2026-04-22 13:35 43.48524 1.13038 35976 ft 419 kts 351°
2026-04-22 13:35 43.54337 1.12233 35970 ft 418 kts 351°
2026-04-22 13:36 43.60069 1.10996 35967 ft 416 kts 343°
2026-04-22 13:36 43.65488 1.08465 35969 ft 412 kts 335°
2026-04-22 13:37 43.70719 1.05352 35966 ft 411 kts 334°
2026-04-22 13:37 43.75952 1.02161 35964 ft 412 kts 334°
2026-04-22 13:38 43.81203 0.98977 35963 ft 411 kts 334°
2026-04-22 13:38 43.89028 0.94249 35961 ft 411 kts 334°
2026-04-22 13:39 43.94271 0.91089 35961 ft 410 kts 334°
2026-04-22 13:39 43.99506 0.87926 35966 ft 413 kts 334°
2026-04-22 13:40 44.04755 0.84745 35966 ft 412 kts 334°
2026-04-22 13:40 44.09989 0.81573 35966 ft 412 kts 334°
2026-04-22 13:41 44.15232 0.78390 35966 ft 412 kts 334°
2026-04-22 13:41 44.20484 0.75192 35964 ft 411 kts 334°
2026-04-22 13:42 44.25717 0.71996 35967 ft 412 kts 334°
2026-04-22 13:42 44.30930 0.68813 35962 ft 411 kts 334°
2026-04-22 13:43 44.36181 0.65601 35961 ft 412 kts 334°
2026-04-22 13:43 44.41425 0.62385 35960 ft 412 kts 334°
2026-04-22 13:44 44.46643 0.59174 35959 ft 412 kts 333°
2026-04-22 13:44 44.51890 0.55938 35959 ft 411 kts 334°
2026-04-22 13:45 44.57127 0.52709 35964 ft 413 kts 334°
2026-04-22 13:45 44.62376 0.49465 35963 ft 413 kts 333°
2026-04-22 13:46 44.67590 0.46237 35963 ft 412 kts 333°
2026-04-22 13:46 44.72825 0.42985 35963 ft 412 kts 333°
2026-04-22 13:47 44.78035 0.39742 35956 ft 412 kts 334°
2026-04-22 13:47 44.83283 0.36475 35953 ft 412 kts 333°
2026-04-22 13:48 44.88546 0.33191 35951 ft 413 kts 333°
2026-04-22 13:48 44.93770 0.29925 35938 ft 413 kts 333°
2026-04-22 13:49 44.99016 0.26633 35933 ft 413 kts 333°
2026-04-22 13:49 45.04229 0.23357 35934 ft 412 kts 333°
2026-04-22 13:50 45.09467 0.20059 35941 ft 412 kts 333°
2026-04-22 13:50 45.14694 0.16763 35943 ft 413 kts 332°
2026-04-22 13:51 45.19941 0.13444 35945 ft 413 kts 332°
2026-04-22 13:51 45.25182 0.10127 35944 ft 412 kts 332°
2026-04-22 13:52 45.30387 0.06824 35944 ft 413 kts 333°
2026-04-22 13:52 45.35638 0.03479 35948 ft 413 kts 332°
2026-04-22 13:53 45.40858 0.00150 35953 ft 413 kts 333°
2026-04-22 13:53 45.46080 -0.03181 35956 ft 414 kts 332°
2026-04-22 13:54 45.51339 -0.06542 35954 ft 414 kts 332°
2026-04-22 13:54 45.56571 -0.09892 35956 ft 413 kts 332°
2026-04-22 13:55 45.61779 -0.13236 35959 ft 412 kts 332°
2026-04-22 13:55 45.67002 -0.16597 35959 ft 413 kts 332°
2026-04-22 13:56 45.72234 -0.19971 35960 ft 414 kts 332°
2026-04-22 13:56 45.77394 -0.23300 35960 ft 400 kts 332°
2026-04-22 13:57 45.82455 -0.26576 35965 ft 406 kts 332°
2026-04-22 13:57 45.87677 -0.29982 35965 ft 414 kts 332°
2026-04-22 13:58 45.92906 -0.33380 35737 ft 414 kts 332°
2026-04-22 13:58 45.95513 -0.35073 35904 ft 412 kts 332°
2026-04-22 13:58 45.98099 -0.36756 36234 ft 416 kts 332°
2026-04-22 13:59 46.00743 -0.38481 35942 ft 416 kts 332°
2026-04-22 13:59 46.03371 -0.40194 35961 ft 415 kts 332°
2026-04-22 13:59 46.08624 -0.43634 35971 ft 415 kts 332°
2026-04-22 14:00 46.11150 -0.45292 36212 ft 416 kts 332°
2026-04-22 14:00 46.13778 -0.47017 35994 ft 414 kts 332°
2026-04-22 14:00 46.16375 -0.48719 35855 ft 408 kts 332°
2026-04-22 14:00 46.18930 -0.50397 35950 ft 410 kts 332°
2026-04-22 14:01 46.24178 -0.53859 35976 ft 417 kts 332°
2026-04-22 14:01 46.29446 -0.57333 35975 ft 415 kts 332°
2026-04-22 14:02 46.34673 -0.60787 35979 ft 415 kts 332°
2026-04-22 14:02 46.39930 -0.64198 35979 ft 417 kts 334°
2026-04-22 14:03 46.45476 -0.66687 35992 ft 422 kts 344°
2026-04-22 14:03 46.51332 -0.67927 35989 ft 426 kts 348°
2026-04-22 14:04 46.57218 -0.68835 35999 ft 425 kts 349°
2026-04-22 14:04 46.63086 -0.69733 36004 ft 426 kts 349°
2026-04-22 14:05 46.68972 -0.70679 36002 ft 426 kts 348°
2026-04-22 14:06 46.77761 -0.72145 36011 ft 427 kts 348°
2026-04-22 14:06 46.83664 -0.73137 36016 ft 425 kts 348°
2026-04-22 14:07 46.89511 -0.74126 36026 ft 426 kts 348°
2026-04-22 14:07 46.95397 -0.75123 36026 ft 426 kts 348°
2026-04-22 14:08 47.01277 -0.76127 36030 ft 425 kts 348°
2026-04-22 14:08 47.07115 -0.77129 36041 ft 426 kts 348°
2026-04-22 14:09 47.13026 -0.78146 36040 ft 426 kts 348°
2026-04-22 14:09 47.18891 -0.79155 36045 ft 426 kts 348°
2026-04-22 14:10 47.24742 -0.80160 36050 ft 426 kts 348°
2026-04-22 14:10 47.27683 -0.80666 36241 ft 426 kts 348°
2026-04-22 14:10 47.30610 -0.81166 37037 ft 415 kts 348°
2026-04-22 14:10 47.33415 -0.81643 37668 ft 410 kts 348°
2026-04-22 14:11 47.36248 -0.82132 37962 ft 411 kts 348°
2026-04-22 14:11 47.41968 -0.83135 38047 ft 412 kts 348°
2026-04-22 14:12 47.47623 -0.84117 38055 ft 409 kts 348°
2026-04-22 14:12 47.53247 -0.85096 38063 ft 410 kts 348°
2026-04-22 14:13 47.58875 -0.86356 38059 ft 409 kts 345°
2026-04-22 14:13 47.64448 -0.87907 38061 ft 407 kts 345°
2026-04-22 14:14 47.70006 -0.89458 38060 ft 409 kts 345°
2026-04-22 14:14 47.75587 -0.90965 38076 ft 409 kts 345°
2026-04-22 14:15 47.81164 -0.92455 38075 ft 408 kts 345°
2026-04-22 14:15 47.86727 -0.93943 38071 ft 408 kts 345°
2026-04-22 14:16 47.92329 -0.95449 38090 ft 409 kts 345°
2026-04-22 14:16 47.97916 -0.96947 38086 ft 410 kts 345°
2026-04-22 14:17 48.03514 -0.98451 38094 ft 410 kts 345°
2026-04-22 14:17 48.09121 -0.99960 38096 ft 410 kts 345°
2026-04-22 14:18 48.14548 -1.01425 38103 ft 408 kts 345°
2026-04-22 14:18 48.20085 -1.02926 38095 ft 407 kts 345°
2026-04-22 14:19 48.25670 -1.04442 38101 ft 410 kts 345°
2026-04-22 14:19 48.31277 -1.05966 38106 ft 410 kts 345°
2026-04-22 14:20 48.39652 -1.08248 38112 ft 409 kts 345°
2026-04-22 14:20 48.45235 -1.09773 38117 ft 410 kts 345°
2026-04-22 14:21 48.53616 -1.12062 38112 ft 409 kts 345°
2026-04-22 14:22 48.61979 -1.14364 38125 ft 410 kts 345°
2026-04-22 14:23 48.70398 -1.16691 38130 ft 410 kts 345°
2026-04-22 14:23 48.75969 -1.18230 38139 ft 409 kts 345°
2026-04-22 14:24 48.81568 -1.19781 38141 ft 411 kts 345°
2026-04-22 14:24 48.87158 -1.21335 38132 ft 410 kts 345°
2026-04-22 14:25 48.92785 -1.22904 38127 ft 410 kts 345°
2026-04-22 14:25 48.98348 -1.24456 38125 ft 410 kts 346°
2026-04-22 14:26 49.03955 -1.26022 38132 ft 410 kts 345°
2026-04-22 14:26 49.09543 -1.27589 38140 ft 409 kts 345°
2026-04-22 14:27 49.15116 -1.29158 38138 ft 409 kts 346°
2026-04-22 14:27 49.20702 -1.30730 38141 ft 411 kts 346°
2026-04-22 14:28 49.26316 -1.32310 38145 ft 410 kts 346°
2026-04-22 14:28 49.31914 -1.33897 38147 ft 411 kts 346°
2026-04-22 14:29 49.37506 -1.35484 38153 ft 410 kts 346°
2026-04-22 14:29 49.43115 -1.37078 38158 ft 410 kts 346°
2026-04-22 14:30 49.48718 -1.38675 38165 ft 412 kts 346°
2026-04-22 14:30 49.54332 -1.40278 38173 ft 411 kts 346°
2026-04-22 14:31 49.59996 -1.41429 38183 ft 417 kts 353°
2026-04-22 14:31 49.65809 -1.41301 38180 ft 418 kts 359°
2026-04-22 14:32 49.71593 -1.40720 38186 ft 419 kts 360°
2026-04-22 14:32 49.77300 -1.40134 38191 ft 420 kts 359°
2026-04-22 14:33 49.83100 -1.39576 38194 ft 420 kts 359°
2026-04-22 14:33 49.88922 -1.39044 38202 ft 420 kts 359°
2026-04-22 14:34 49.94746 -1.38518 38212 ft 420 kts 359°
2026-04-22 14:34 50.00575 -1.37938 38212 ft 421 kts
2026-04-22 14:35 50.06396 -1.36698 38217 ft 423 kts
2026-04-22 14:35 50.12145 -1.35180 38224 ft 424 kts
2026-04-22 14:36 50.17963 -1.33653 38224 ft 424 kts
2026-04-22 14:36 50.23769 -1.32162 38223 ft 423 kts
2026-04-22 14:37 50.29544 -1.30699 38223 ft 423 kts
2026-04-22 14:37 50.35328 -1.29241 38230 ft 422 kts
2026-04-22 14:38 50.41125 -1.27782 38232 ft 422 kts
2026-04-22 14:38 50.46916 -1.26237 38228 ft 424 kts
2026-04-22 14:39 50.52496 -1.23238 38239 ft 432 kts 22°
2026-04-22 14:39 50.57690 -1.18506 38239 ft 435 kts 28°
2026-04-22 14:40 50.65294 -1.10753 38243 ft 434 kts 29°
2026-04-22 14:40 50.70347 -1.05611 38242 ft 433 kts 29°
2026-04-22 14:41 50.75394 -1.00514 38248 ft 431 kts 28°
2026-04-22 14:41 50.80479 -0.95528 38245 ft 431 kts 26°
2026-04-22 14:42 50.85867 -0.91630 38242 ft 427 kts 16°
2026-04-22 14:42 50.91462 -0.88691 38253 ft 425 kts 13°
2026-04-22 14:43 50.97094 -0.85908 38255 ft 425 kts 13°
2026-04-22 14:43 51.02729 -0.83065 38263 ft 425 kts 14°
2026-04-22 14:44 51.08319 -0.80187 38271 ft 424 kts 14°
2026-04-22 14:44 51.13887 -0.77295 38279 ft 424 kts 14°
2026-04-22 14:45 51.19490 -0.74370 38276 ft 424 kts 14°
2026-04-22 14:45 51.25058 -0.71448 38283 ft 424 kts 14°
2026-04-22 14:46 51.30649 -0.68513 38289 ft 424 kts 14°
2026-04-22 14:46 51.36243 -0.65570 38294 ft 423 kts 15°
2026-04-22 14:47 51.41813 -0.62627 38291 ft 423 kts 15°
2026-04-22 14:47 51.47412 -0.59662 38293 ft 423 kts 14°
2026-04-22 14:48 51.52969 -0.56711 38302 ft 422 kts 14°
2026-04-22 14:48 51.58518 -0.53760 38085 ft 422 kts 14°
2026-04-22 14:49 51.61301 -0.52276 37830 ft 417 kts 14°
2026-04-22 14:49 51.63938 -0.50865 37573 ft 414 kts 15°
2026-04-22 14:49 51.66648 -0.49416 37322 ft 415 kts 14°
2026-04-22 14:49 51.69407 -0.47942 37061 ft 416 kts 14°
2026-04-22 14:50 51.72131 -0.46490 36800 ft 416 kts 14°
2026-04-22 14:50 51.74885 -0.45222 36558 ft 412 kts
2026-04-22 14:50 51.77701 -0.44541 36364 ft 407 kts 359°
2026-04-22 14:50 51.80492 -0.44797 36338 ft 403 kts 348°
2026-04-22 14:51 51.85876 -0.47231 36330 ft 403 kts 336°
2026-04-22 14:51 51.90804 -0.51392 36329 ft 402 kts 327°
2026-04-22 14:52 51.95533 -0.56188 36332 ft 401 kts 326°
2026-04-22 14:52 52.00235 -0.60980 36334 ft 403 kts 327°
2026-04-22 14:53 52.04988 -0.65712 36333 ft 402 kts 327°
2026-04-22 14:53 52.09769 -0.70426 36333 ft 403 kts 327°
2026-04-22 14:54 52.14550 -0.75141 36342 ft 404 kts 327°
2026-04-22 14:54 52.19327 -0.79859 36338 ft 404 kts 327°
2026-04-22 14:55 52.24012 -0.84876 36333 ft 404 kts 321°
2026-04-22 14:55 52.28186 -0.90963 36338 ft 404 kts 314°
2026-04-22 14:56 52.32047 -0.97515 36282 ft 399 kts 313°
2026-04-22 14:56 52.33967 -1.00852 35753 ft 400 kts 313°
2026-04-22 14:56 52.35836 -1.04109 35396 ft 396 kts 313°
2026-04-22 14:57 52.37716 -1.07376 35036 ft 391 kts 313°
2026-04-22 14:57 52.39555 -1.10567 34601 ft 388 kts 313°
2026-04-22 14:57 52.41398 -1.13760 34169 ft 383 kts 313°
2026-04-22 14:57 52.43222 -1.16919 33693 ft 380 kts 313°
2026-04-22 14:58 52.45029 -1.20044 33179 ft 378 kts 313°
2026-04-22 14:58 52.46769 -1.23057 32658 ft 377 kts 313°
2026-04-22 14:58 52.48550 -1.26144 32252 ft 372 kts 313°
2026-04-22 14:58 52.50317 -1.29209 31765 ft 369 kts 313°
2026-04-22 14:59 52.52089 -1.32194 31259 ft 367 kts 315°
2026-04-22 14:59 52.53990 -1.34889 30809 ft 364 kts 323°
2026-04-22 14:59 52.56176 -1.36991 30338 ft 363 kts 333°
2026-04-22 14:59 52.58465 -1.38589 29878 ft 360 kts 337°
2026-04-22 15:00 52.60799 -1.40018 29307 ft 360 kts 338°
2026-04-22 15:00 52.63159 -1.41427 28823 ft 357 kts 338°
2026-04-22 15:00 52.65453 -1.42799 28380 ft 353 kts 338°
2026-04-22 15:00 52.67746 -1.44179 27828 ft 352 kts 338°
2026-04-22 15:01 52.70034 -1.45561 27267 ft 352 kts 339°
2026-04-22 15:01 52.72294 -1.46927 26763 ft 350 kts 339°
2026-04-22 15:01 52.74585 -1.48314 26304 ft 346 kts 339°
2026-04-22 15:01 52.76828 -1.49672 25799 ft 345 kts 339°
2026-04-22 15:02 52.78920 -1.50940 25311 ft 343 kts 339°
2026-04-22 15:02 52.81169 -1.52306 24834 ft 341 kts 339°
2026-04-22 15:02 52.83369 -1.53645 24281 ft 340 kts 339°
2026-04-22 15:02 52.85587 -1.54995 23819 ft 337 kts 339°
2026-04-22 15:03 52.87769 -1.56324 23321 ft 336 kts 339°
2026-04-22 15:03 52.89969 -1.57666 22826 ft 335 kts 339°
2026-04-22 15:03 52.92130 -1.58985 22279 ft 336 kts 339°
2026-04-22 15:03 52.94332 -1.60330 21731 ft 336 kts 340°
2026-04-22 15:04 52.96489 -1.61650 21380 ft 331 kts 340°
2026-04-22 15:04 52.98634 -1.62964 20873 ft 331 kts 340°
2026-04-22 15:04 53.00786 -1.64285 20362 ft 331 kts 340°
2026-04-22 15:04 53.02941 -1.65607 19927 ft 329 kts 339°
2026-04-22 15:05 53.05064 -1.66912 19471 ft 327 kts 340°
2026-04-22 15:05 53.07211 -1.68233 18988 ft 327 kts 340°
2026-04-22 15:05 53.09315 -1.69529 18490 ft 328 kts 340°
2026-04-22 15:05 53.11388 -1.70808 18076 ft 326 kts 340°
2026-04-22 15:06 53.13504 -1.72114 17601 ft 326 kts 340°
2026-04-22 15:06 53.15618 -1.73420 17147 ft 326 kts 340°
2026-04-22 15:06 53.17728 -1.74728 16717 ft 324 kts 340°
2026-04-22 15:06 53.19841 -1.76042 16272 ft 323 kts 340°
2026-04-22 15:07 53.21933 -1.77346 15818 ft 323 kts 340°
2026-04-22 15:07 53.24011 -1.78641 15407 ft 322 kts 340°
2026-04-22 15:07 53.26129 -1.79959 14953 ft 322 kts 340°
2026-04-22 15:07 53.28220 -1.81257 14525 ft 321 kts 340°
2026-04-22 15:08 53.30303 -1.82549 14075 ft 321 kts 340°
2026-04-22 15:08 53.32382 -1.83839 13745 ft 317 kts 340°
2026-04-22 15:08 53.34436 -1.85112 13511 ft 316 kts 340°
2026-04-22 15:08 53.36501 -1.86392 13187 ft 320 kts 340°
2026-04-22 15:09 53.38499 -1.87634 12820 ft 319 kts 340°
2026-04-22 15:09 53.40543 -1.88912 12447 ft 316 kts 340°
2026-04-22 15:09 53.42594 -1.90198 12072 ft 313 kts 340°
2026-04-22 15:09 53.44628 -1.91477 11710 ft 311 kts 340°
2026-04-22 15:10 53.46634 -1.92740 11338 ft 309 kts 340°
2026-04-22 15:10 53.48638 -1.94007 10958 ft 306 kts 340°
2026-04-22 15:10 53.50658 -1.95060 10569 ft 303 kts 351°
2026-04-22 15:10 53.52713 -1.95436 10267 ft 297 kts 359°
2026-04-22 15:11 53.54767 -1.95590 9990 ft 291 kts
2026-04-22 15:11 53.56779 -1.95708 9614 ft 290 kts
2026-04-22 15:11 53.58776 -1.95828 9232 ft 289 kts
2026-04-22 15:11 53.60794 -1.95963 8835 ft 288 kts
2026-04-22 15:12 53.62794 -1.96112 8453 ft 287 kts
2026-04-22 15:12 53.64780 -1.96274 8071 ft 286 kts
2026-04-22 15:12 53.66763 -1.96444 7690 ft 285 kts
2026-04-22 15:12 53.68740 -1.96503 7304 ft 282 kts
2026-04-22 15:13 53.70662 -1.96138 6929 ft 280 kts 12°
2026-04-22 15:13 53.72567 -1.95661 6649 ft 274 kts 13°
2026-04-22 15:13 53.74441 -1.95188 6385 ft 269 kts 13°
2026-04-22 15:13 53.76272 -1.94734 6083 ft 266 kts 13°
2026-04-22 15:14 53.78102 -1.94285 5782 ft 263 kts 13°
2026-04-22 15:14 53.79881 -1.93856 5486 ft 261 kts 13°
2026-04-22 15:14 53.81678 -1.93427 5178 ft 258 kts 13°
2026-04-22 15:14 53.83431 -1.93013 4871 ft 255 kts 13°
2026-04-22 15:15 53.85181 -1.92614 4568 ft 253 kts 13°
2026-04-22 15:15 53.86915 -1.92227 4265 ft 250 kts 13°
2026-04-22 15:15 53.88629 -1.91857 3969 ft 248 kts 13°
2026-04-22 15:15 53.90325 -1.91503 3672 ft 245 kts 13°
2026-04-22 15:16 53.91998 -1.91160 3448 ft 239 kts 13°
2026-04-22 15:16 53.93631 -1.90830 3246 ft 233 kts 13°
2026-04-22 15:16 53.95210 -1.90516 3067 ft 227 kts 13°
2026-04-22 15:16 53.96752 -1.90200 2969 ft 217 kts 13°
2026-04-22 15:17 53.98135 -1.89582 2955 ft 200 kts 33°
2026-04-22 15:17 53.99144 -1.88107 2961 ft 189 kts 61°
2026-04-22 15:17 53.99548 -1.86014 2988 ft 190 kts 88°
2026-04-22 15:17 53.99257 -1.83846 2966 ft 188 kts 116°
2026-04-22 15:18 53.98365 -1.82296 2949 ft 181 kts 146°
2026-04-22 15:18 53.97240 -1.81467 2957 ft 172 kts 147°
2026-04-22 15:18 53.96246 -1.80372 2980 ft 172 kts 137°
2026-04-22 15:18 53.95311 -1.79143 2982 ft 168 kts 135°
2026-04-22 15:19 53.94451 -1.77942 2925 ft 155 kts 131°
2026-04-22 15:19 53.93628 -1.76731 2689 ft 156 kts 130°
2026-04-22 15:19 53.92822 -1.75576 2448 ft 149 kts 134°
2026-04-22 15:19 53.92085 -1.74505 2254 ft 133 kts 135°
2026-04-22 15:20 53.91380 -1.73480 1967 ft 142 kts 126°
2026-04-22 15:20 53.90660 -1.72364 1777 ft 145 kts 134°
2026-04-22 15:20 53.89906 -1.71311 1626 ft 133 kts 132°
2026-04-22 15:20 53.89256 -1.70156 1349 ft 141 kts 131°
2026-04-22 15:21 53.88543 -1.69045 1186 ft 141 kts 135°
2026-04-22 15:21 53.87788 -1.67916 862 ft 147 kts 131°
2026-04-22 15:21 53.87037 -1.66749 681 ft 146 kts 133°
2026-04-22 15:21 53.86406 -1.65775 680 ft 88 kts 137°
2026-04-22 15:22 53.86083 -1.65268 670 ft 48 kts 140°
2026-04-22 15:22 53.85883 -1.64989 656 ft 25 kts 137°
2026-04-22 15:22 53.85907 -1.64956 653 ft 9 kts 306°
2026-04-22 15:22 53.85984 -1.65133 664 ft 28 kts 310°
2026-04-22 15:23 53.86134 -1.65352 674 ft 30 kts 322°
2026-04-22 15:23 53.86256 -1.65490 675 ft 14 kts 345°
2026-04-22 15:23 53.86350 -1.65466 671 ft 10 kts 13°
2026-04-22 15:23 53.86375 -1.65457 670 ft 0 kts
2026-04-22 15:24 53.86394 -1.65453 670 ft 8 kts
2026-04-22 15:24 53.86465 -1.65444 668 ft 10 kts
2026-04-22 15:24 53.86556 -1.65438 665 ft 17 kts
2026-04-22 15:24 53.86692 -1.65423 659 ft 19 kts
2026-04-22 15:25 53.86801 -1.65413 656 ft 13 kts 13°
2026-04-22 15:25 53.86827 -1.65256 644 ft 14 kts 92°
2026-04-22 15:25 53.86852 -1.65158 635 ft 5 kts 13°
2026-04-22 15:25 53.86877 -1.65156 634 ft 0 kts